Time,TemperatureF,DewpointF,PressureIn,WindDirection,WindDirectionDegrees,WindSpeedMPH,WindSpeedGustMPH,Humidity,HourlyPrecipIn,Conditions,Clouds,dailyrainin,SoftwareType,DateUTC
2013-09-27 00:04:00,52.2,50.5,30.05,SW,221,0.0,0.0,94,0.00,,,0.00,WeatherCatV1.21B27,2013-09-26 23:04:00,
2013-09-27 00:09:00,52.0,50.3,30.05,SW,221,0.0,0.0,94,0.00,,,0.00,WeatherCatV1.21B27,2013-09-26 23:09:00,
2013-09-27 00:14:00,51.8,50.1,30.05,SW,221,0.0,0.0,94,0.00,,,0.00,WeatherCatV1.21B27,2013-09-26 23:14:00,
2013-09-27 00:19:00,51.6,49.9,30.05,SW,221,0.0,0.0,94,0.00,,,0.00,WeatherCatV1.21B27,2013-09-26 23:19:00,
2013-09-27 00:24:00,51.5,49.8,30.05,SW,221,0.0,0.0,94,0.00,,,0.00,WeatherCatV1.21B27,2013-09-26 23:24:00,
2013-09-27 00:25:00,59.5,52.6,30.02,SW,218,0.0,0.0,78,0.00,,,0.00,WeatherCatV1.21B27,2013-09-26 23:25:00,
2013-09-27 00:30:00,51.5,49.8,30.05,SW,221,0.0,0.0,94,0.00,,,0.00,WeatherCatV1.21B27,2013-09-26 23:30:00,
2013-09-27 00:35:00,51.4,49.8,30.05,SW,221,0.0,0.0,94,0.00,,,0.00,WeatherCatV1.21B27,2013-09-26 23:35:00,
2013-09-27 00:40:00,51.4,49.8,30.05,SW,221,0.0,0.0,94,0.00,,,0.00,WeatherCatV1.21B27,2013-09-26 23:40:00,
2013-09-27 00:45:00,51.4,49.8,30.05,SW,221,0.0,0.0,94,0.00,,,0.00,WeatherCatV1.21B27,2013-09-26 23:45:00,
2013-09-27 00:50:00,51.4,49.8,30.05,SW,221,0.0,0.0,94,0.00,,,0.00,WeatherCatV1.21B27,2013-09-26 23:50:00,
2013-09-27 00:55:00,51.4,49.8,30.05,SW,221,0.0,0.0,94,0.00,,,0.00,WeatherCatV1.21B27,2013-09-26 23:55:00,
2013-09-27 01:00:00,50.9,49.3,30.05,SW,221,0.0,0.0,94,0.00,,,0.00,WeatherCatV1.21B27,2013-09-27 00:00:00,
2013-09-27 01:05:00,50.9,49.3,30.05,SW,221,0.0,0.0,94,0.00,,,0.00,WeatherCatV1.21B27,2013-09-27 00:05:00,
2013-09-27 01:10:00,50.9,49.3,30.05,SW,221,0.0,0.0,94,0.00,,,0.00,WeatherCatV1.21B27,2013-09-27 00:10:00,
2013-09-27 01:15:00,50.9,49.3,30.05,SW,221,0.0,0.0,94,0.00,,,0.00,WeatherCatV1.21B27,2013-09-27 00:15:00,
2013-09-27 01:20:00,50.9,49.3,30.05,SW,221,0.0,0.0,94,0.00,,,0.00,WeatherCatV1.21B27,2013-09-27 00:20:00,
2013-09-27 01:25:00,50.9,49.3,30.05,SW,221,0.0,0.0,94,0.00,,,0.00,WeatherCatV1.21B27,2013-09-27 00:25:00,
2013-09-27 01:30:00,50.9,49.3,30.05,SW,221,0.0,0.0,94,0.00,,,0.00,WeatherCatV1.21B27,2013-09-27 00:30:00,
2013-09-27 01:35:00,50.4,48.9,30.05,SW,221,0.0,0.0,95,0.00,,,0.00,WeatherCatV1.21B27,2013-09-27 00:35:00,
2013-09-27 01:40:00,50.4,48.9,30.05,SW,221,0.0,0.0,95,0.00,,,0.00,WeatherCatV1.21B27,2013-09-27 00:40:00,
2013-09-27 01:45:00,50.4,48.9,30.05,SW,221,0.0,0.0,95,0.00,,,0.00,WeatherCatV1.21B27,2013-09-27 00:45:00,
2013-09-27 01:50:00,50.4,48.9,30.05,SW,221,0.0,0.0,95,0.00,,,0.00,WeatherCatV1.21B27,2013-09-27 00:50:00,
2013-09-27 01:55:00,50.4,48.9,30.05,SW,221,0.0,0.0,95,0.00,,,0.00,WeatherCatV1.21B27,2013-09-27 00:55:00,
2013-09-27 02:00:00,50.4,48.9,30.05,SW,221,0.0,0.0,95,0.00,,,0.00,WeatherCatV1.21B27,2013-09-27 01:00:00,
2013-09-27 02:05:00,49.9,48.5,30.04,SW,221,0.0,0.0,95,0.00,,,0.00,WeatherCatV1.21B27,2013-09-27 01:05:00,
2013-09-27 02:10:00,49.9,48.5,30.04,SW,221,0.0,0.0,95,0.00,,,0.00,WeatherCatV1.21B27,2013-09-27 01:10:00,
2013-09-27 02:15:00,49.9,48.5,30.04,SW,221,0.0,0.0,95,0.00,,,0.00,WeatherCatV1.21B27,2013-09-27 01:15:00,
2013-09-27 02:20:00,49.9,48.5,30.04,SW,221,0.0,0.0,95,0.00,,,0.00,WeatherCatV1.21B27,2013-09-27 01:20:00,
2013-09-27 02:25:00,49.9,48.5,30.04,SW,221,0.0,0.0,95,0.00,,,0.00,WeatherCatV1.21B27,2013-09-27 01:25:00,
2013-09-27 02:30:00,49.4,48.1,30.04,SW,221,0.0,0.0,95,0.00,,,0.00,WeatherCatV1.21B27,2013-09-27 01:30:00,
2013-09-27 02:35:00,49.4,48.1,30.04,SW,221,0.0,0.0,95,0.00,,,0.00,WeatherCatV1.21B27,2013-09-27 01:35:00,
2013-09-27 02:40:00,49.4,48.1,30.04,SW,221,0.0,0.0,95,0.00,,,0.00,WeatherCatV1.21B27,2013-09-27 01:40:00,
2013-09-27 02:45:00,49.4,48.1,30.04,SW,221,0.0,0.0,95,0.00,,,0.00,WeatherCatV1.21B27,2013-09-27 01:45:00,
2013-09-27 02:50:00,49.4,48.1,30.04,SW,221,0.0,0.0,95,0.00,,,0.00,WeatherCatV1.21B27,2013-09-27 01:50:00,
2013-09-27 02:55:00,49.4,48.1,30.04,SW,221,0.0,0.0,95,0.00,,,0.00,WeatherCatV1.21B27,2013-09-27 01:55:00,
2013-09-27 03:00:00,48.9,47.6,30.04,SW,221,0.0,0.0,95,0.00,,,0.00,WeatherCatV1.21B27,2013-09-27 02:00:00,
2013-09-27 03:05:00,48.9,47.6,30.04,SW,221,0.0,0.0,95,0.00,,,0.00,WeatherCatV1.21B27,2013-09-27 02:05:00,
2013-09-27 03:10:00,48.9,47.6,30.04,SW,221,0.0,0.0,95,0.00,,,0.00,WeatherCatV1.21B27,2013-09-27 02:10:00,
2013-09-27 03:15:00,48.9,47.6,30.04,SW,221,0.0,0.0,95,0.00,,,0.00,WeatherCatV1.21B27,2013-09-27 02:15:00,
2013-09-27 03:20:00,48.9,47.6,30.04,SW,221,0.0,0.0,95,0.00,,,0.00,WeatherCatV1.21B27,2013-09-27 02:20:00,
2013-09-27 03:25:00,48.9,47.6,30.04,SW,221,0.0,0.0,95,0.00,,,0.00,WeatherCatV1.21B27,2013-09-27 02:25:00,
2013-09-27 03:30:00,48.9,47.6,30.04,SW,221,0.0,0.0,95,0.00,,,0.00,WeatherCatV1.21B27,2013-09-27 02:30:00,
2013-09-27 03:35:00,48.4,47.2,30.03,SW,221,0.0,0.0,96,0.00,,,0.00,WeatherCatV1.21B27,2013-09-27 02:35:00,
2013-09-27 03:40:00,48.4,47.2,30.03,SW,221,0.0,0.0,96,0.00,,,0.00,WeatherCatV1.21B27,2013-09-27 02:40:00,
2013-09-27 03:45:00,48.4,47.2,30.03,SW,221,0.0,0.0,96,0.00,,,0.00,WeatherCatV1.21B27,2013-09-27 02:45:00,
2013-09-27 03:50:00,48.4,47.2,30.03,SW,221,0.0,0.0,96,0.00,,,0.00,WeatherCatV1.21B27,2013-09-27 02:50:00,
2013-09-27 03:55:00,48.4,47.2,30.03,SW,221,0.0,0.0,96,0.00,,,0.00,WeatherCatV1.21B27,2013-09-27 02:55:00,
2013-09-27 04:00:00,48.4,47.2,30.03,SW,221,0.0,0.0,96,0.00,,,0.00,WeatherCatV1.21B27,2013-09-27 03:00:00,
2013-09-27 04:05:00,47.9,46.8,30.03,SW,221,0.0,0.0,96,0.00,,,0.00,WeatherCatV1.21B27,2013-09-27 03:05:00,
2013-09-27 04:10:00,47.9,46.8,30.03,SW,221,0.0,0.0,96,0.00,,,0.00,WeatherCatV1.21B27,2013-09-27 03:10:00,
2013-09-27 04:15:00,47.9,46.8,30.03,SW,221,0.0,0.0,96,0.00,,,0.00,WeatherCatV1.21B27,2013-09-27 03:15:00,
2013-09-27 04:20:00,47.9,46.8,30.03,SW,221,0.0,0.0,96,0.00,,,0.00,WeatherCatV1.21B27,2013-09-27 03:20:00,
2013-09-27 04:25:00,47.9,46.8,30.03,SW,221,0.0,0.0,96,0.00,,,0.00,WeatherCatV1.21B27,2013-09-27 03:25:00,
2013-09-27 04:30:00,47.9,46.8,30.03,SW,221,0.0,0.0,96,0.00,,,0.00,WeatherCatV1.21B27,2013-09-27 03:30:00,
2013-09-27 04:35:00,47.4,46.3,30.03,SW,221,0.0,0.0,96,0.00,,,0.00,WeatherCatV1.21B27,2013-09-27 03:35:00,
2013-09-27 04:40:00,47.4,46.3,30.03,SW,221,0.0,0.0,96,0.00,,,0.00,WeatherCatV1.21B27,2013-09-27 03:40:00,
2013-09-27 04:45:00,47.4,46.3,30.03,SW,221,0.0,0.0,96,0.00,,,0.00,WeatherCatV1.21B27,2013-09-27 03:45:00,
2013-09-27 04:50:00,47.4,46.3,30.03,SW,221,0.0,0.0,96,0.00,,,0.00,WeatherCatV1.21B27,2013-09-27 03:50:00,
2013-09-27 04:55:00,47.4,46.3,30.03,SW,221,0.0,0.0,96,0.00,,,0.00,WeatherCatV1.21B27,2013-09-27 03:55:00,
2013-09-27 05:00:00,47.4,46.3,30.03,SW,221,0.0,0.0,96,0.00,,,0.00,WeatherCatV1.21B27,2013-09-27 04:00:00,
2013-09-27 05:05:00,46.9,45.9,30.03,SW,221,0.0,0.0,96,0.00,,,0.00,WeatherCatV1.21B27,2013-09-27 04:05:00,
2013-09-27 05:10:00,46.9,45.9,30.03,SW,221,0.0,0.0,96,0.00,,,0.00,WeatherCatV1.21B27,2013-09-27 04:10:00,
2013-09-27 05:15:00,46.9,45.9,30.03,SW,221,0.0,0.0,96,0.00,,,0.00,WeatherCatV1.21B27,2013-09-27 04:15:00,
2013-09-27 05:20:00,46.9,45.9,30.03,SW,221,0.0,0.0,96,0.00,,,0.00,WeatherCatV1.21B27,2013-09-27 04:20:00,
2013-09-27 05:25:00,46.9,45.9,30.03,SW,221,0.0,0.0,96,0.00,,,0.00,WeatherCatV1.21B27,2013-09-27 04:25:00,
2013-09-27 05:30:00,46.4,45.5,30.02,SW,221,0.0,0.0,97,0.00,,,0.00,WeatherCatV1.21B27,2013-09-27 04:30:00,
2013-09-27 05:35:00,46.4,45.5,30.02,SW,221,0.0,0.0,97,0.00,,,0.00,WeatherCatV1.21B27,2013-09-27 04:35:00,
2013-09-27 05:40:00,46.4,45.5,30.02,SW,221,0.0,0.0,97,0.00,,,0.00,WeatherCatV1.21B27,2013-09-27 04:40:00,
2013-09-27 05:45:00,46.4,45.5,30.02,SW,221,0.0,0.0,97,0.00,,,0.00,WeatherCatV1.21B27,2013-09-27 04:45:00,
2013-09-27 05:50:00,46.4,45.5,30.02,SW,221,0.0,0.0,97,0.00,,,0.00,WeatherCatV1.21B27,2013-09-27 04:50:00,
2013-09-27 06:04:00,46.4,45.5,30.02,SW,221,0.0,0.0,97,0.00,,,0.00,WeatherCatV1.21B27,2013-09-27 05:04:00,
2013-09-27 06:09:00,45.8,45.0,30.02,SW,219,0.0,0.0,97,0.00,,,0.00,WeatherCatV1.21B27,2013-09-27 05:09:00,
2013-09-27 06:14:00,45.9,45.1,30.02,SW,221,0.0,0.0,97,0.00,,,0.00,WeatherCatV1.21B27,2013-09-27 05:14:00,
2013-09-27 06:19:00,46.0,45.2,30.02,SW,219,0.0,0.0,97,0.00,,,0.00,WeatherCatV1.21B27,2013-09-27 05:19:00,
2013-09-27 06:24:00,46.2,45.7,30.02,SW,219,0.0,0.0,98,0.00,,,0.00,WeatherCatV1.21B27,2013-09-27 05:24:00,
2013-09-27 06:29:00,46.2,45.7,30.02,SW,221,0.0,0.0,98,0.00,,,0.00,WeatherCatV1.21B27,2013-09-27 05:29:00,
2013-09-27 06:34:00,46.1,45.6,30.02,SW,219,0.0,0.0,98,0.00,,,0.00,WeatherCatV1.21B27,2013-09-27 05:34:00,
2013-09-27 06:39:00,46.0,45.2,30.02,SW,220,0.0,0.0,97,0.00,,,0.00,WeatherCatV1.21B27,2013-09-27 05:39:00,
2013-09-27 06:44:00,46.0,45.2,30.02,SW,219,0.0,0.0,97,0.00,,,0.00,WeatherCatV1.21B27,2013-09-27 05:44:00,
2013-09-27 06:49:00,45.8,45.0,30.01,SW,221,0.0,0.0,97,0.00,,,0.00,WeatherCatV1.21B27,2013-09-27 05:49:00,
2013-09-27 06:54:00,45.7,44.9,30.01,SW,220,0.0,0.0,97,0.00,,,0.00,WeatherCatV1.21B27,2013-09-27 05:54:00,
2013-09-27 06:59:00,45.8,45.3,30.01,SW,221,0.0,0.0,98,0.00,,,0.00,WeatherCatV1.21B27,2013-09-27 05:59:00,
2013-09-27 07:04:00,45.9,45.4,30.02,SW,221,0.0,0.0,98,0.00,,,0.00,WeatherCatV1.21B27,2013-09-27 06:04:00,
2013-09-27 07:09:00,45.9,45.4,30.02,SW,221,0.0,0.0,98,0.00,,,0.00,WeatherCatV1.21B27,2013-09-27 06:09:00,
2013-09-27 07:14:00,46.0,45.5,30.02,SW,220,0.0,0.0,98,0.00,,,0.00,WeatherCatV1.21B27,2013-09-27 06:14:00,
2013-09-27 07:19:00,46.3,45.8,30.02,SW,221,0.0,0.0,98,0.00,,,0.00,WeatherCatV1.21B27,2013-09-27 06:19:00,
2013-09-27 07:24:00,46.5,46.0,30.02,SW,220,0.0,0.0,98,0.00,,,0.00,WeatherCatV1.21B27,2013-09-27 06:24:00,
2013-09-27 07:29:00,46.6,46.1,30.02,SW,221,0.0,0.0,98,0.00,,,0.00,WeatherCatV1.21B27,2013-09-27 06:29:00,
2013-09-27 07:34:00,46.7,46.2,30.02,SW,220,0.0,0.0,98,0.00,,,0.00,WeatherCatV1.21B27,2013-09-27 06:34:00,
2013-09-27 07:39:00,46.7,46.2,30.02,SW,221,0.0,0.0,98,0.00,,,0.00,WeatherCatV1.21B27,2013-09-27 06:39:00,
2013-09-27 07:44:00,46.9,46.4,30.02,SW,219,0.0,0.0,98,0.00,,,0.00,WeatherCatV1.21B27,2013-09-27 06:44:00,
2013-09-27 07:49:00,47.4,46.9,30.02,SW,219,0.0,0.0,98,0.00,,,0.00,WeatherCatV1.21B27,2013-09-27 06:49:00,
2013-09-27 07:54:00,48.0,47.7,30.02,SW,221,0.0,0.0,99,0.00,,,0.00,WeatherCatV1.21B27,2013-09-27 06:54:00,
2013-09-27 07:59:00,48.5,48.2,30.02,SW,221,0.0,0.0,99,0.00,,,0.00,WeatherCatV1.21B27,2013-09-27 06:59:00,
2013-09-27 08:04:00,49.1,48.8,30.02,SW,221,0.0,0.0,99,0.00,,,0.00,WeatherCatV1.21B27,2013-09-27 07:04:00,
2013-09-27 08:09:00,49.6,49.3,30.02,SW,221,0.0,0.0,99,0.00,,,0.00,WeatherCatV1.21B27,2013-09-27 07:09:00,
2013-09-27 08:14:00,49.9,49.6,30.02,SW,221,0.0,0.0,99,0.00,,,0.00,WeatherCatV1.21B27,2013-09-27 07:14:00,
2013-09-27 08:19:00,50.0,49.7,30.02,SW,221,0.0,0.0,99,0.00,,,0.00,WeatherCatV1.21B27,2013-09-27 07:19:00,
2013-09-27 08:24:00,50.2,49.9,30.02,SW,221,0.0,0.0,99,0.00,,,0.00,WeatherCatV1.21B27,2013-09-27 07:24:00,
2013-09-27 08:29:00,50.4,50.1,30.02,SW,221,0.0,0.0,99,0.00,,,0.00,WeatherCatV1.21B27,2013-09-27 07:29:00,
2013-09-27 08:34:00,50.7,50.4,30.02,SW,221,0.0,0.0,99,0.00,,,0.00,WeatherCatV1.21B27,2013-09-27 07:34:00,
2013-09-27 08:39:00,50.9,50.6,30.02,SW,221,0.0,0.0,99,0.00,,,0.00,WeatherCatV1.21B27,2013-09-27 07:39:00,
2013-09-27 08:44:00,51.2,50.9,30.02,SW,225,0.0,0.0,99,0.00,,,0.00,WeatherCatV1.21B27,2013-09-27 07:44:00,
2013-09-27 08:49:00,51.4,51.1,30.02,SW,225,0.0,0.0,99,0.00,,,0.00,WeatherCatV1.21B27,2013-09-27 07:49:00,
2013-09-27 08:54:00,51.6,51.3,30.02,SW,225,0.0,0.0,99,0.00,,,0.00,WeatherCatV1.21B27,2013-09-27 07:54:00,
2013-09-27 08:59:00,51.9,51.6,30.02,SW,224,0.0,0.0,99,0.00,,,0.00,WeatherCatV1.21B27,2013-09-27 07:59:00,
2013-09-27 09:04:00,52.1,51.8,30.02,SW,235,0.0,0.0,99,0.00,,,0.00,WeatherCatV1.21B27,2013-09-27 08:04:00,
2013-09-27 09:09:00,52.4,51.8,30.02,SW,222,0.0,1.0,98,0.00,,,0.00,WeatherCatV1.21B27,2013-09-27 08:09:00,
2013-09-27 09:14:00,52.5,52.0,30.02,SW,222,0.0,1.0,98,0.00,,,0.00,WeatherCatV1.21B27,2013-09-27 08:14:00,
2013-09-27 09:19:00,52.8,52.2,30.02,East,89,0.0,1.0,98,0.00,,,0.00,WeatherCatV1.21B27,2013-09-27 08:19:00,
2013-09-27 09:24:00,53.2,52.4,30.02,North,358,1.0,1.0,97,0.00,,,0.00,WeatherCatV1.21B27,2013-09-27 08:24:00,
2013-09-27 09:29:00,53.6,52.5,30.02,NE,39,0.0,0.0,96,0.00,,,0.00,WeatherCatV1.21B27,2013-09-27 08:29:00,
2013-09-27 09:34:00,54.0,52.6,30.02,ESE,113,0.0,1.0,95,0.00,,,0.00,WeatherCatV1.21B27,2013-09-27 08:34:00,
2013-09-27 09:39:00,54.4,52.4,30.02,ESE,103,0.0,1.0,93,0.00,,,0.00,WeatherCatV1.21B27,2013-09-27 08:39:00,
2013-09-27 09:44:00,54.8,52.5,30.02,SE,145,0.0,1.0,92,0.00,,,0.00,WeatherCatV1.21B27,2013-09-27 08:44:00,
2013-09-27 09:49:00,55.2,52.3,30.02,ESE,106,1.0,1.0,90,0.00,,,0.00,WeatherCatV1.21B27,2013-09-27 08:49:00,
2013-09-27 09:54:00,55.5,52.3,30.02,WSW,248,0.0,2.0,89,0.00,,,0.00,WeatherCatV1.21B27,2013-09-27 08:54:00,
2013-09-27 09:59:00,55.7,52.5,30.02,WSW,252,1.0,1.0,89,0.00,,,0.00,WeatherCatV1.21B27,2013-09-27 08:59:00,
2013-09-27 10:04:00,55.9,52.7,30.02,NNE,23,0.0,1.0,89,0.00,,,0.00,WeatherCatV1.21B27,2013-09-27 09:04:00,
2013-09-27 10:09:00,56.2,52.4,30.02,SSW,195,0.0,1.0,87,0.00,,,0.00,WeatherCatV1.21B27,2013-09-27 09:09:00,
2013-09-27 10:14:00,56.4,52.3,30.02,West,262,0.0,2.0,86,0.00,,,0.00,WeatherCatV1.21B27,2013-09-27 09:14:00,
2013-09-27 10:19:00,56.6,52.5,30.02,NW,305,0.0,1.0,86,0.00,,,0.00,WeatherCatV1.21B27,2013-09-27 09:19:00,
2013-09-27 10:24:00,56.8,52.7,30.02,West,271,0.0,1.0,86,0.00,,,0.00,WeatherCatV1.21B27,2013-09-27 09:24:00,
2013-09-27 10:29:00,57.0,52.5,30.02,West,269,0.0,1.0,85,0.00,,,0.00,WeatherCatV1.21B27,2013-09-27 09:29:00,
2013-09-27 10:34:00,57.2,52.7,30.02,West,274,0.0,0.0,85,0.00,,,0.00,WeatherCatV1.21B27,2013-09-27 09:34:00,
2013-09-27 10:39:00,57.5,52.4,30.02,West,270,0.0,1.0,83,0.00,,,0.00,WeatherCatV1.21B27,2013-09-27 09:39:00,
2013-09-27 10:44:00,57.7,52.9,30.02,WSW,239,0.0,1.0,84,0.00,,,0.00,WeatherCatV1.21B27,2013-09-27 09:44:00,
2013-09-27 10:49:00,57.9,52.8,30.02,WSW,255,0.0,1.0,83,0.00,,,0.00,WeatherCatV1.21B27,2013-09-27 09:49:00,
2013-09-27 10:54:00,58.2,53.1,30.02,West,262,0.0,1.0,83,0.00,,,0.00,WeatherCatV1.21B27,2013-09-27 09:54:00,
2013-09-27 10:59:00,58.5,53.3,30.02,SW,217,0.0,0.0,83,0.00,,,0.00,WeatherCatV1.21B27,2013-09-27 09:59:00,
2013-09-27 11:04:00,58.8,53.0,30.02,South,174,0.0,0.0,81,0.00,,,0.00,WeatherCatV1.21B27,2013-09-27 10:04:00,
2013-09-27 11:09:00,59.1,53.3,30.02,East,89,1.0,2.0,81,0.00,,,0.00,WeatherCatV1.21B27,2013-09-27 10:09:00,
2013-09-27 11:14:00,59.3,53.1,30.02,NNW,347,0.0,1.0,80,0.00,,,0.00,WeatherCatV1.21B27,2013-09-27 10:14:00,
2013-09-27 11:19:00,59.5,53.0,30.02,West,271,0.0,3.0,79,0.00,,,0.00,WeatherCatV1.21B27,2013-09-27 10:19:00,
2013-09-27 11:24:00,59.5,53.0,30.01,NNW,327,0.0,1.0,79,0.00,,,0.00,WeatherCatV1.21B27,2013-09-27 10:24:00,
2013-09-27 11:29:00,59.6,53.1,30.01,WSW,252,0.0,1.0,79,0.00,,,0.00,WeatherCatV1.21B27,2013-09-27 10:29:00,
2013-09-27 11:34:00,59.7,52.8,30.01,NNW,340,1.0,4.0,78,0.00,,,0.00,WeatherCatV1.21B27,2013-09-27 10:34:00,
2013-09-27 11:39:00,59.8,52.9,30.01,West,262,0.0,2.0,78,0.00,,,0.00,WeatherCatV1.21B27,2013-09-27 10:39:00,
2013-09-27 11:44:00,59.9,52.7,30.01,West,280,0.0,1.0,77,0.00,,,0.00,WeatherCatV1.21B27,2013-09-27 10:44:00,
2013-09-27 11:49:00,60.0,52.8,30.01,West,280,1.0,1.0,77,0.00,,,0.00,WeatherCatV1.21B27,2013-09-27 10:49:00,
2013-09-27 11:54:00,60.3,53.4,30.01,West,280,0.0,0.0,78,0.00,,,0.00,WeatherCatV1.21B27,2013-09-27 10:54:00,
2013-09-27 11:59:00,60.5,53.2,30.00,SW,234,0.0,1.0,77,0.00,,,0.00,WeatherCatV1.21B27,2013-09-27 10:59:00,
2013-09-27 12:04:00,60.8,52.5,30.00,West,281,1.0,3.0,74,0.00,,,0.00,WeatherCatV1.21B27,2013-09-27 11:04:00,
2013-09-27 12:09:00,61.1,53.1,30.01,NW,318,0.0,1.0,75,0.00,,,0.00,WeatherCatV1.21B27,2013-09-27 11:09:00,
2013-09-27 12:14:00,61.7,53.3,30.00,SSW,209,1.0,2.0,74,0.00,,,0.00,WeatherCatV1.21B27,2013-09-27 11:14:00,
2013-09-27 12:19:00,62.2,53.4,30.00,NE,39,0.0,1.0,73,0.00,,,0.00,WeatherCatV1.21B27,2013-09-27 11:19:00,
2013-09-27 12:24:00,62.8,52.9,30.01,West,264,0.0,2.0,70,0.00,,,0.00,WeatherCatV1.21B27,2013-09-27 11:24:00,
2013-09-27 12:29:00,63.2,52.8,30.00,West,260,0.0,2.0,69,0.00,,,0.00,WeatherCatV1.21B27,2013-09-27 11:29:00,
2013-09-27 12:34:00,63.7,53.3,30.00,SW,235,0.0,1.0,69,0.00,,,0.00,WeatherCatV1.21B27,2013-09-27 11:34:00,
2013-09-27 12:39:00,64.3,53.9,30.00,East,101,0.0,2.0,69,0.00,,,0.00,WeatherCatV1.21B27,2013-09-27 11:39:00,
2013-09-27 12:44:00,64.6,53.4,30.00,West,262,1.0,1.0,67,0.00,,,0.00,WeatherCatV1.21B27,2013-09-27 11:44:00,
2013-09-27 12:49:00,64.7,52.7,30.00,WNW,299,1.0,4.0,65,0.00,,,0.00,WeatherCatV1.21B27,2013-09-27 11:49:00,
2013-09-27 12:54:00,64.9,54.1,30.00,North,1,0.0,1.0,68,0.00,,,0.00,WeatherCatV1.21B27,2013-09-27 11:54:00,
2013-09-27 12:59:00,65.8,54.1,30.00,WNW,285,0.0,0.0,66,0.00,,,0.00,WeatherCatV1.21B27,2013-09-27 11:59:00,
2013-09-27 13:04:00,66.6,54.5,30.00,WNW,293,0.0,1.0,65,0.00,,,0.00,WeatherCatV1.21B27,2013-09-27 12:04:00,
2013-09-27 13:09:00,66.7,53.3,30.00,NW,308,1.0,1.0,62,0.00,,,0.00,WeatherCatV1.21B27,2013-09-27 12:09:00,
2013-09-27 13:14:00,66.8,53.8,29.99,NW,309,0.0,0.0,63,0.00,,,0.00,WeatherCatV1.21B27,2013-09-27 12:14:00,
2013-09-27 13:19:00,66.5,53.1,29.99,West,276,1.0,1.0,62,0.00,,,0.00,WeatherCatV1.21B27,2013-09-27 12:19:00,
2013-09-27 13:24:00,66.2,52.8,29.99,SE,135,1.0,2.0,62,0.00,,,0.00,WeatherCatV1.21B27,2013-09-27 12:24:00,
2013-09-27 13:29:00,66.0,52.6,29.99,ESE,113,0.0,2.0,62,0.00,,,0.00,WeatherCatV1.21B27,2013-09-27 12:29:00,
2013-09-27 13:34:00,65.8,52.8,29.98,WSW,237,0.0,1.0,63,0.00,,,0.00,WeatherCatV1.21B27,2013-09-27 12:34:00,
2013-09-27 13:39:00,66.0,53.5,29.98,ESE,110,0.0,1.0,64,0.00,,,0.00,WeatherCatV1.21B27,2013-09-27 12:39:00,
2013-09-27 13:44:00,66.2,52.8,29.98,WNW,290,0.0,2.0,62,0.00,,,0.00,WeatherCatV1.21B27,2013-09-27 12:44:00,
2013-09-27 13:49:00,65.4,52.0,29.98,WNW,293,0.0,2.0,62,0.00,,,0.00,WeatherCatV1.21B27,2013-09-27 12:49:00,
2013-09-27 13:54:00,65.1,52.6,29.98,WNW,298,0.0,1.0,64,0.00,,,0.00,WeatherCatV1.21B27,2013-09-27 12:54:00,
2013-09-27 13:59:00,64.9,52.8,29.98,West,263,0.0,1.0,65,0.00,,,0.00,WeatherCatV1.21B27,2013-09-27 12:59:00,
2013-09-27 14:04:00,64.6,52.6,29.98,WSW,252,0.0,0.0,65,0.00,,,0.00,WeatherCatV1.21B27,2013-09-27 13:04:00,
2013-09-27 14:09:00,64.6,53.4,29.97,ENE,71,0.0,1.0,67,0.00,,,0.00,WeatherCatV1.21B27,2013-09-27 13:09:00,
2013-09-27 14:14:00,64.7,53.1,29.98,WSW,242,0.0,1.0,66,0.00,,,0.00,WeatherCatV1.21B27,2013-09-27 13:14:00,
2013-09-27 14:19:00,64.6,51.7,29.98,WNW,295,0.0,2.0,63,0.00,,,0.00,WeatherCatV1.21B27,2013-09-27 13:19:00,
2013-09-27 14:24:00,64.0,51.6,29.98,North,355,1.0,1.0,64,0.00,,,0.00,WeatherCatV1.21B27,2013-09-27 13:24:00,
2013-09-27 14:29:00,63.8,52.2,29.97,ESE,116,1.0,2.0,66,0.00,,,0.00,WeatherCatV1.21B27,2013-09-27 13:29:00,
2013-09-27 14:34:00,63.6,51.6,29.97,WNW,300,0.0,1.0,65,0.00,,,0.00,WeatherCatV1.21B27,2013-09-27 13:34:00,
2013-09-27 14:39:00,63.6,51.6,29.97,West,280,0.0,2.0,65,0.00,,,0.00,WeatherCatV1.21B27,2013-09-27 13:39:00,
2013-09-27 14:44:00,63.7,52.1,29.97,ESE,113,0.0,2.0,66,0.00,,,0.00,WeatherCatV1.21B27,2013-09-27 13:44:00,
2013-09-27 14:49:00,64.1,52.5,29.97,SSE,151,1.0,3.0,66,0.00,,,0.00,WeatherCatV1.21B27,2013-09-27 13:49:00,
2013-09-27 14:54:00,64.0,52.0,29.97,West,270,1.0,2.0,65,0.00,,,0.00,WeatherCatV1.21B27,2013-09-27 13:54:00,
2013-09-27 14:59:00,63.9,52.3,29.97,NW,310,1.0,3.0,66,0.00,,,0.00,WeatherCatV1.21B27,2013-09-27 13:59:00,
2013-09-27 15:04:00,64.1,53.3,29.97,West,277,0.0,1.0,68,0.00,,,0.00,WeatherCatV1.21B27,2013-09-27 14:04:00,
2013-09-27 15:09:00,64.6,52.6,29.97,WSW,250,1.0,2.0,65,0.00,,,0.00,WeatherCatV1.21B27,2013-09-27 14:09:00,
2013-09-27 15:14:00,64.5,52.9,29.97,NW,318,1.0,4.0,66,0.00,,,0.00,WeatherCatV1.21B27,2013-09-27 14:14:00,
2013-09-27 15:19:00,64.2,52.2,29.97,NW,309,1.0,2.0,65,0.00,,,0.00,WeatherCatV1.21B27,2013-09-27 14:19:00,
2013-09-27 15:24:00,63.9,52.3,29.96,NW,308,0.0,1.0,66,0.00,,,0.00,WeatherCatV1.21B27,2013-09-27 14:24:00,
2013-09-27 15:29:00,63.7,52.1,29.96,West,259,1.0,4.0,66,0.00,,,0.00,WeatherCatV1.21B27,2013-09-27 14:29:00,
2013-09-27 15:34:00,63.4,51.8,29.96,SE,137,1.0,5.0,66,0.00,,,0.00,WeatherCatV1.21B27,2013-09-27 14:34:00,
2013-09-27 15:39:00,63.1,51.5,29.96,SE,124,1.0,3.0,66,0.00,,,0.00,WeatherCatV1.21B27,2013-09-27 14:39:00,
2013-09-27 15:44:00,62.8,51.7,29.95,West,277,1.0,5.0,67,0.00,,,0.00,WeatherCatV1.21B27,2013-09-27 14:44:00,
2013-09-27 15:49:00,62.6,51.5,29.95,ENE,77,0.0,3.0,67,0.00,,,0.00,WeatherCatV1.21B27,2013-09-27 14:49:00,
2013-09-27 15:54:00,62.5,51.8,29.95,WNW,294,1.0,2.0,68,0.00,,,0.00,WeatherCatV1.21B27,2013-09-27 14:54:00,
2013-09-27 15:59:00,62.2,51.5,29.95,NW,314,0.0,4.0,68,0.00,,,0.00,WeatherCatV1.21B27,2013-09-27 14:59:00,
2013-09-27 16:04:00,61.9,51.6,29.95,East,86,0.0,1.0,69,0.00,,,0.00,WeatherCatV1.21B27,2013-09-27 15:04:00,
2013-09-27 16:09:00,61.7,51.0,29.95,ENE,59,0.0,1.0,68,0.00,,,0.00,WeatherCatV1.21B27,2013-09-27 15:09:00,
2013-09-27 16:14:00,61.5,51.2,29.95,North,5,0.0,3.0,69,0.00,,,0.00,WeatherCatV1.21B27,2013-09-27 15:14:00,
2013-09-27 16:19:00,61.4,51.1,29.95,NW,313,1.0,2.0,69,0.00,,,0.00,WeatherCatV1.21B27,2013-09-27 15:19:00,
2013-09-27 16:24:00,61.3,51.4,29.95,WNW,293,0.0,0.0,70,0.00,,,0.00,WeatherCatV1.21B27,2013-09-27 15:24:00,
2013-09-27 16:29:00,61.2,51.3,29.95,WSW,258,0.0,1.0,70,0.00,,,0.00,WeatherCatV1.21B27,2013-09-27 15:29:00,
2013-09-27 16:34:00,61.0,51.1,29.95,WNW,285,1.0,2.0,70,0.00,,,0.00,WeatherCatV1.21B27,2013-09-27 15:34:00,
2013-09-27 16:39:00,60.9,51.4,29.94,SE,125,0.0,1.0,71,0.00,,,0.00,WeatherCatV1.21B27,2013-09-27 15:39:00,
2013-09-27 16:44:00,60.8,51.3,29.94,WNW,295,0.0,1.0,71,0.00,,,0.00,WeatherCatV1.21B27,2013-09-27 15:44:00,
2013-09-27 16:49:00,60.7,51.2,29.94,WNW,303,0.0,0.0,71,0.00,,,0.00,WeatherCatV1.21B27,2013-09-27 15:49:00,
2013-09-27 16:54:00,60.7,51.2,29.94,ESE,108,1.0,1.0,71,0.00,,,0.00,WeatherCatV1.21B27,2013-09-27 15:54:00,
2013-09-27 16:59:00,60.6,51.5,29.94,ENE,68,0.0,2.0,72,0.00,,,0.00,WeatherCatV1.21B27,2013-09-27 15:59:00,
2013-09-27 17:04:00,60.4,51.0,29.94,WNW,293,2.0,2.0,71,0.00,,,0.00,WeatherCatV1.21B27,2013-09-27 16:04:00,
2013-09-27 17:09:00,60.2,51.1,29.94,East,94,0.0,1.0,72,0.00,,,0.00,WeatherCatV1.21B27,2013-09-27 16:09:00,
2013-09-27 17:14:00,60.1,51.0,29.94,NNE,26,0.0,0.0,72,0.00,,,0.00,WeatherCatV1.21B27,2013-09-27 16:14:00,
2013-09-27 17:19:00,60.1,51.0,29.94,NW,326,0.0,1.0,72,0.00,,,0.00,WeatherCatV1.21B27,2013-09-27 16:19:00,
2013-09-27 17:24:00,59.9,51.2,29.94,East,90,0.0,2.0,73,0.00,,,0.00,WeatherCatV1.21B27,2013-09-27 16:24:00,
2013-09-27 17:29:00,59.7,51.0,29.94,WNW,290,0.0,1.0,73,0.00,,,0.00,WeatherCatV1.21B27,2013-09-27 16:29:00,
2013-09-27 17:34:00,59.6,50.9,29.94,ESE,108,0.0,2.0,73,0.00,,,0.00,WeatherCatV1.21B27,2013-09-27 16:34:00,
2013-09-27 17:39:00,59.4,51.1,29.94,North,6,0.0,2.0,74,0.00,,,0.00,WeatherCatV1.21B27,2013-09-27 16:39:00,
2013-09-27 17:44:00,59.2,50.9,29.94,West,262,1.0,2.0,74,0.00,,,0.00,WeatherCatV1.21B27,2013-09-27 16:44:00,
2013-09-27 17:49:00,59.1,51.2,29.94,ESE,108,2.0,2.0,75,0.00,,,0.00,WeatherCatV1.21B27,2013-09-27 16:49:00,
2013-09-27 17:54:00,59.0,51.1,29.94,ESE,116,0.0,2.0,75,0.00,,,0.00,WeatherCatV1.21B27,2013-09-27 16:54:00,
2013-09-27 17:59:00,58.8,50.9,29.94,NW,312,0.0,3.0,75,0.00,,,0.00,WeatherCatV1.21B27,2013-09-27 16:59:00,
2013-09-27 18:04:00,58.6,51.1,29.94,NW,307,0.0,7.0,76,0.00,,,0.00,WeatherCatV1.21B27,2013-09-27 17:04:00,
2013-09-27 18:09:00,58.4,51.2,29.94,WNW,296,3.0,3.0,77,0.00,,,0.00,WeatherCatV1.21B27,2013-09-27 17:09:00,
2013-09-27 18:14:00,58.2,51.0,29.94,NW,320,0.0,2.0,77,0.00,,,0.00,WeatherCatV1.21B27,2013-09-27 17:14:00,
2013-09-27 18:19:00,58.0,51.2,29.94,West,260,0.0,1.0,78,0.00,,,0.00,WeatherCatV1.21B27,2013-09-27 17:19:00,
2013-09-27 18:24:00,57.8,51.0,29.94,East,99,0.0,2.0,78,0.00,,,0.00,WeatherCatV1.21B27,2013-09-27 17:24:00,
2013-09-27 18:26:00,57.7,51.2,29.95,NE,37,0.0,0.0,79,0.00,,,0.00,WeatherCatV1.21B27,2013-09-27 17:26:00,
2013-09-27 18:31:00,57.5,50.7,29.95,WNW,298,0.0,1.0,78,0.00,,,0.00,WeatherCatV1.21B27,2013-09-27 17:31:00,
2013-09-27 18:36:00,57.3,50.8,29.94,East,86,1.0,3.0,79,0.00,,,0.00,WeatherCatV1.21B27,2013-09-27 17:36:00,
2013-09-27 18:41:00,57.1,50.7,29.95,WNW,295,0.0,1.0,79,0.00,,,0.00,WeatherCatV1.21B27,2013-09-27 17:41:00,
2013-09-27 18:46:00,56.9,50.8,29.95,ESE,109,0.0,0.0,80,0.00,,,0.00,WeatherCatV1.21B27,2013-09-27 17:46:00,
2013-09-27 18:51:00,56.8,50.7,29.95,NNE,16,0.0,1.0,80,0.00,,,0.00,WeatherCatV1.21B27,2013-09-27 17:51:00,
2013-09-27 18:56:00,56.6,50.8,29.95,North,6,0.0,2.0,81,0.00,,,0.00,WeatherCatV1.21B27,2013-09-27 17:56:00,
2013-09-27 19:01:00,56.5,50.4,29.95,ESE,106,3.0,3.0,80,0.00,,,0.00,WeatherCatV1.21B27,2013-09-27 18:01:00,
2013-09-27 19:06:00,56.3,50.5,29.95,WNW,288,0.0,1.0,81,0.00,,,0.00,WeatherCatV1.21B27,2013-09-27 18:06:00,
2013-09-27 19:11:00,56.3,50.5,29.95,WNW,285,0.0,1.0,81,0.00,,,0.00,WeatherCatV1.21B27,2013-09-27 18:11:00,
2013-09-27 19:16:00,56.2,50.8,29.95,WNW,285,0.0,1.0,82,0.00,,,0.00,WeatherCatV1.21B27,2013-09-27 18:16:00,
2013-09-27 19:21:00,56.0,50.6,29.95,WNW,285,0.0,1.0,82,0.00,,,0.00,WeatherCatV1.21B27,2013-09-27 18:21:00,
2013-09-27 19:26:00,55.9,50.5,29.96,WNW,286,0.0,1.0,82,0.00,,,0.00,WeatherCatV1.21B27,2013-09-27 18:26:00,
2013-09-27 19:31:00,55.8,50.4,29.95,West,267,0.0,1.0,82,0.00,,,0.00,WeatherCatV1.21B27,2013-09-27 18:31:00,
2013-09-27 19:36:00,55.8,50.4,29.95,ESE,116,0.0,2.0,82,0.00,,,0.00,WeatherCatV1.21B27,2013-09-27 18:36:00,
2013-09-27 19:41:00,55.7,50.6,29.95,WNW,290,0.0,1.0,83,0.00,,,0.00,WeatherCatV1.21B27,2013-09-27 18:41:00,
2013-09-27 19:46:00,55.6,50.5,29.94,East,92,0.0,2.0,83,0.00,,,0.00,WeatherCatV1.21B27,2013-09-27 18:46:00,
2013-09-27 19:51:00,55.6,50.5,29.94,SW,229,0.0,1.0,83,0.00,,,0.00,WeatherCatV1.21B27,2013-09-27 18:51:00,
2013-09-27 19:56:00,55.6,50.5,29.94,WNW,283,2.0,2.0,83,0.00,,,0.00,WeatherCatV1.21B27,2013-09-27 18:56:00,
2013-09-27 20:01:00,55.5,50.4,29.94,West,278,0.0,1.0,83,0.00,,,0.00,WeatherCatV1.21B27,2013-09-27 19:01:00,
2013-09-27 20:06:00,55.5,50.7,29.94,WSW,252,0.0,1.0,84,0.00,,,0.00,WeatherCatV1.21B27,2013-09-27 19:06:00,
2013-09-27 20:11:00,55.4,50.6,29.94,WSW,252,0.0,1.0,84,0.00,,,0.00,WeatherCatV1.21B27,2013-09-27 19:11:00,
2013-09-27 20:16:00,55.4,50.6,29.94,NW,304,0.0,1.0,84,0.00,,,0.00,WeatherCatV1.21B27,2013-09-27 19:16:00,
2013-09-27 20:21:00,55.4,50.6,29.94,East,87,0.0,2.0,84,0.00,,,0.00,WeatherCatV1.21B27,2013-09-27 19:21:00,
2013-09-27 20:26:00,55.3,50.5,29.94,NNW,328,0.0,1.0,84,0.00,,,0.00,WeatherCatV1.21B27,2013-09-27 19:26:00,
2013-09-27 20:31:00,55.3,50.5,29.94,NNW,331,0.0,2.0,84,0.00,,,0.00,WeatherCatV1.21B27,2013-09-27 19:31:00,
2013-09-27 20:36:00,55.2,50.8,29.93,NNW,332,0.0,1.0,85,0.00,,,0.00,WeatherCatV1.21B27,2013-09-27 19:36:00,
2013-09-27 20:41:00,55.1,50.7,29.94,ESE,104,0.0,1.0,85,0.00,,,0.00,WeatherCatV1.21B27,2013-09-27 19:41:00,
2013-09-27 20:46:00,55.0,50.6,29.94,East,95,0.0,1.0,85,0.00,,,0.00,WeatherCatV1.21B27,2013-09-27 19:46:00,
2013-09-27 20:51:00,54.9,50.8,29.94,East,95,0.0,1.0,86,0.00,,,0.00,WeatherCatV1.21B27,2013-09-27 19:51:00,
2013-09-27 20:56:00,54.8,50.7,29.94,NW,316,0.0,1.0,86,0.00,,,0.00,WeatherCatV1.21B27,2013-09-27 19:56:00,
2013-09-27 21:01:00,54.8,50.7,29.94,NW,315,0.0,0.0,86,0.00,,,0.00,WeatherCatV1.21B27,2013-09-27 20:01:00,
2013-09-27 21:06:00,54.7,50.6,29.94,NW,314,0.0,0.0,86,0.00,,,0.00,WeatherCatV1.21B27,2013-09-27 20:06:00,
2013-09-27 21:11:00,54.6,50.8,29.93,WSW,257,0.0,1.0,87,0.00,,,0.00,WeatherCatV1.21B27,2013-09-27 20:11:00,
2013-09-27 21:16:00,54.6,50.8,29.93,West,278,0.0,1.0,87,0.00,,,0.00,WeatherCatV1.21B27,2013-09-27 20:16:00,
2013-09-27 21:21:00,54.6,50.8,29.93,NW,305,0.0,1.0,87,0.00,,,0.00,WeatherCatV1.21B27,2013-09-27 20:21:00,
2013-09-27 21:26:00,54.6,50.8,29.93,East,89,0.0,0.0,87,0.00,,,0.00,WeatherCatV1.21B27,2013-09-27 20:26:00,
2013-09-27 21:31:00,54.5,50.7,29.93,NW,324,0.0,1.0,87,0.00,,,0.00,WeatherCatV1.21B27,2013-09-27 20:31:00,
2013-09-27 21:36:00,54.4,50.6,29.93,NW,324,0.0,0.0,87,0.00,,,0.00,WeatherCatV1.21B27,2013-09-27 20:36:00,
2013-09-27 21:41:00,54.4,50.6,29.93,NW,321,0.0,0.0,87,0.00,,,0.00,WeatherCatV1.21B27,2013-09-27 20:41:00,
2013-09-27 21:46:00,54.3,50.8,29.93,NW,323,0.0,0.0,88,0.00,,,0.00,WeatherCatV1.21B27,2013-09-27 20:46:00,
2013-09-27 21:51:00,54.1,50.6,29.93,ESE,103,0.0,0.0,88,0.00,,,0.00,WeatherCatV1.21B27,2013-09-27 20:51:00,
2013-09-27 21:56:00,54.0,50.5,29.93,ESE,103,0.0,0.0,88,0.00,,,0.00,WeatherCatV1.21B27,2013-09-27 20:56:00,
2013-09-27 22:01:00,53.8,50.3,29.93,ESE,103,0.0,0.0,88,0.00,,,0.00,WeatherCatV1.21B27,2013-09-27 21:01:00,
2013-09-27 22:06:00,53.6,50.4,29.92,ESE,103,0.0,0.0,89,0.00,,,0.00,WeatherCatV1.21B27,2013-09-27 21:06:00,
2013-09-27 22:11:00,53.5,50.3,29.92,ESE,103,0.0,0.0,89,0.00,,,0.00,WeatherCatV1.21B27,2013-09-27 21:11:00,
2013-09-27 22:16:00,53.2,50.0,29.93,ESE,103,0.0,0.0,89,0.00,,,0.00,WeatherCatV1.21B27,2013-09-27 21:16:00,
2013-09-27 22:21:00,53.0,49.8,29.92,ESE,103,0.0,0.0,89,0.00,,,0.00,WeatherCatV1.21B27,2013-09-27 21:21:00,
2013-09-27 22:26:00,52.7,49.5,29.92,ESE,103,0.0,0.0,89,0.00,,,0.00,WeatherCatV1.21B27,2013-09-27 21:26:00,
2013-09-27 22:31:00,52.5,49.7,29.92,ESE,103,0.0,0.0,90,0.00,,,0.00,WeatherCatV1.21B27,2013-09-27 21:31:00,
2013-09-27 22:36:00,52.2,49.3,29.92,ESE,103,0.0,0.0,90,0.00,,,0.00,WeatherCatV1.21B27,2013-09-27 21:36:00,
2013-09-27 22:41:00,52.1,49.5,29.92,ESE,103,0.0,0.0,91,0.00,,,0.00,WeatherCatV1.21B27,2013-09-27 21:41:00,
2013-09-27 22:46:00,52.1,49.8,29.92,ESE,103,0.0,0.0,92,0.00,,,0.00,WeatherCatV1.21B27,2013-09-27 21:46:00,
2013-09-27 22:51:00,52.1,49.8,29.92,ESE,103,0.0,0.0,92,0.00,,,0.00,WeatherCatV1.21B27,2013-09-27 21:51:00,
2013-09-27 22:56:00,52.0,49.8,29.92,ESE,103,0.0,0.0,92,0.00,,,0.00,WeatherCatV1.21B27,2013-09-27 21:56:00,
2013-09-27 23:01:00,51.9,49.7,29.92,ESE,103,0.0,0.0,92,0.00,,,0.00,WeatherCatV1.21B27,2013-09-27 22:01:00,
2013-09-27 23:06:00,51.7,49.5,29.92,ESE,103,0.0,0.0,92,0.00,,,0.00,WeatherCatV1.21B27,2013-09-27 22:06:00,
2013-09-27 23:11:00,51.6,49.3,29.92,ESE,103,0.0,0.0,92,0.00,,,0.00,WeatherCatV1.21B27,2013-09-27 22:11:00,
2013-09-27 23:16:00,51.4,49.2,29.92,ESE,103,0.0,0.0,92,0.00,,,0.00,WeatherCatV1.21B27,2013-09-27 22:16:00,
2013-09-27 23:21:00,51.2,49.0,29.93,ESE,103,0.0,0.0,92,0.00,,,0.00,WeatherCatV1.21B27,2013-09-27 22:21:00,
2013-09-27 23:26:00,50.9,49.0,29.93,ESE,103,0.0,0.0,93,0.00,,,0.00,WeatherCatV1.21B27,2013-09-27 22:26:00,
2013-09-27 23:31:00,50.7,48.8,29.92,ESE,103,0.0,0.0,93,0.00,,,0.00,WeatherCatV1.21B27,2013-09-27 22:31:00,
2013-09-27 23:36:00,50.6,48.7,29.92,ESE,103,0.0,0.0,93,0.00,,,0.00,WeatherCatV1.21B27,2013-09-27 22:36:00,
2013-09-27 23:41:00,50.5,48.8,29.92,ESE,103,0.0,0.0,94,0.00,,,0.00,WeatherCatV1.21B27,2013-09-27 22:41:00,
2013-09-27 23:46:00,50.6,48.9,29.92,ESE,103,0.0,0.0,94,0.00,,,0.00,WeatherCatV1.21B27,2013-09-27 22:46:00,
2013-09-27 23:51:00,50.7,49.0,29.92,ESE,103,0.0,0.0,94,0.00,,,0.00,WeatherCatV1.21B27,2013-09-27 22:51:00,
2013-09-27 23:56:00,51.0,49.6,29.92,ESE,103,0.0,0.0,95,0.00,,,0.00,WeatherCatV1.21B27,2013-09-27 22:56:00,